AXIOM-1 DEB

Last updated on Sun May 15 2022 00:02:06 GMT+0000 (Coordinated Universal Time)

1 52319U 22037B 22134.33725530 .50204784 12766-4 27279-3 0 9990 2 52319 51.8498 136.6452 0015898 263.2716 233.3005 16.53909487 2990

Satellite not in orbit